Location: Iesi
(43.5167°N, 13.2333°E)
Time: 02:02:31
(UTC+00:00)

Cosmos 2123 Rocket - Pass Details

Date: 08 August 2020
Orbit: 962 x 991 km, 82.9° (Epoch: 19 September)

Event Time Altitude Azimuth Distance (km) Brightness Sun altitude
Rises 20:05:36 0° 352° (N) 3,665 7.8 -16.9°
Reaches altitude 10° 20:08:07 10° 354° (N) 2,717 7.0 -17.2°
Maximum altitude 20:14:21 80° 82° (E) 991 3.9 -18.0°
Enters shadow 20:18:14 25° 167° (SSE) 1,866 5.0 -18.5°
